LRSM Weather Reports


time (UTC)temp
C
wind
direction
speed
KPH
gust
KPH
rain 1hr
cm
rain 24hr
cm
rain mn
cm
humidity
%
barometer
mb
20260508011832 13 290 14.5 0.0 0.00 0.00 0.00 94 1015.0
20260508010332 13 290 14.5 0.0 0.00 0.00 0.00 94 1015.0
20260508004833 13 270 8.0 0.0 0.00 0.00 0.00 100 1015.0
20260508003332 13 270 8.0 0.0 0.00 0.00 0.00 100 1015.0
20260508000334 13 260 8.0 0.0 0.00 0.00 0.00 100 1015.0
20260507233332 15 250 8.0 0.0 0.00 0.00 0.00 94 1015.0
20260507231832 15 210 11.3 0.0 0.00 0.00 0.00 94 1015.0
20260507230332 15 210 11.3 0.0 0.00 0.00 0.00 94 1015.0
20260507224832 13 190 8.0 0.0 0.00 0.00 0.00 94 1015.0
20260507223451 13 190 8.0 0.0 0.00 0.00 0.00 94 1015.0
20260507220332 15 180 8.0 0.0 0.00 0.00 0.00 88 1015.0
20260507214832 15 140 8.0 0.0 0.00 0.00 0.00 94 1015.0
20260507213334 15 140 8.0 0.0 0.00 0.00 0.00 94 1015.0
20260507211832 15 120 8.0 0.0 0.00 0.00 0.00 88 1015.0
20260507210333 15 120 8.0 0.0 0.00 0.00 0.00 88 1015.0
20260507204832 15 170 4.8 0.0 0.00 0.00 0.00 88 1015.0
20260507203333 15 170 4.8 0.0 0.00 0.00 0.00 88 1015.0
20260507201832 15 190 4.8 0.0 0.00 0.00 0.00 94 1015.0
20260507200333 15 190 4.8 0.0 0.00 0.00 0.00 94 1015.0
20260507194838 15 190 4.8 0.0 0.00 0.00 0.00 88 1015.0
20260507193332 15 190 4.8 0.0 0.00 0.00 0.00 88 1015.0
20260507191832 16 170 4.8 0.0 0.00 0.00 0.00 83 1015.0
20260507190333 16 170 4.8 0.0 0.00 0.00 0.00 83 1015.0
20260507184834 16 170 4.8 0.0 0.00 0.00 0.00 83 1014.0
20260507183332 16 170 4.8 0.0 0.00 0.00 0.00 83 1014.0
20260507181832 16 180 3.2 0.0 0.00 0.00 0.00 83 1014.0
20260507180332 16 180 3.2 0.0 0.00 0.00 0.00 83 1014.0
20260507174832 17 190 3.2 0.0 0.00 0.00 0.00 77 1014.0
20260507173333 17 190 3.2 0.0 0.00 0.00 0.00 77 1014.0
20260507171833 17 180 9.7 0.0 0.00 0.00 0.00 77 1014.0
20260507170332 17 180 9.7 0.0 0.00 0.00 0.00 77 1014.0
20260507164833 17 190 8.0 0.0 0.00 0.00 0.00 77 1014.0
20260507163333 17 190 8.0 0.0 0.00 0.00 0.00 77 1014.0
20260507161832 17 210 4.8 0.0 0.00 0.00 0.00 77 1014.0
20260507160332 17 210 4.8 0.0 0.00 0.00 0.00 77 1014.0
20260507154832 17 240 9.7 0.0 0.00 0.00 0.00 83 1014.0
20260507153332 17 240 9.7 0.0 0.00 0.00 0.00 83 1014.0
20260507151832 17 220 8.0 0.0 0.00 0.00 0.00 83 1014.0
20260507150332 17 220 8.0 0.0 0.00 0.00 0.00 83 1014.0
20260507144832 17 230 11.3 0.0 0.00 0.00 0.00 77 1014.0
20260507143334 17 230 11.3 0.0 0.00 0.00 0.00 77 1014.0
20260507141832 17 250 12.9 0.0 0.00 0.00 0.00 78 1014.0
20260507140332 17 250 12.9 0.0 0.00 0.00 0.00 78 1014.0
20260507134833 17 260 20.9 0.0 0.00 0.00 0.00 83 1015.0
20260507133332 17 260 20.9 0.0 0.00 0.00 0.00 83 1015.0
20260507131829 17 250 25.7 0.0 0.00 0.00 0.00 73 1014.0
20260507130332 17 250 25.7 0.0 0.00 0.00 0.00 73 1014.0
20260507124829 17 240 20.9 0.0 0.00 0.00 0.00 73 1015.0
20260507123410 17 240 20.9 0.0 0.00 0.00 0.00 73 1015.0
20260507121832 18 250 22.5 0.0 0.00 0.00 0.00 68 1015.0
20260507120332 18 250 22.5 0.0 0.00 0.00 0.00 68 1015.0
20260507114832 20 250 29.0 0.0 0.00 0.00 0.00 56 1014.0
20260507113351 21 230 14.5 0.0 0.00 0.00 0.00 53 1014.0
20260507111835 21 230 14.5 0.0 0.00 0.00 0.00 53 1014.0
20260507110332 21 230 14.5 0.0 0.00 0.00 0.00 53 1014.0
20260507104832 20 240 12.9 0.0 0.00 0.00 0.00 60 1014.0
20260507103332 20 240 12.9 0.0 0.00 0.00 0.00 60 1014.0
20260507101832 22 200 14.5 0.0 0.00 0.00 0.00 47 1014.0
20260507100333 22 200 14.5 0.0 0.00 0.00 0.00 47 1014.0
20260507094832 22 180 16.1 0.0 0.00 0.00 0.00 47 1014.0
20260507093333 22 180 16.1 0.0 0.00 0.00 0.00 47 1014.0
20260507091834 21 180 17.7 0.0 0.00 0.00 0.00 50 1014.0
20260507090332 21 180 17.7 0.0 0.00 0.00 0.00 50 1014.0
20260507084832 21 180 16.1 0.0 0.00 0.00 0.00 50 1014.0
20260507083333 21 180 16.1 0.0 0.00 0.00 0.00 50 1014.0
20260507081832 21 180 17.7 0.0 0.00 0.00 0.00 46 1013.0
20260507080333 21 180 17.7 0.0 0.00 0.00 0.00 46 1013.0
20260507074833 20 180 16.1 0.0 0.00 0.00 0.00 53 1013.0
20260507073332 20 180 16.1 0.0 0.00 0.00 0.00 53 1013.0
20260507071832 20 210 12.9 0.0 0.00 0.00 0.00 53 1013.0
20260507070332 20 210 12.9 0.0 0.00 0.00 0.00 53 1013.0
20260507064832 20 200 12.9 0.0 0.00 0.00 0.00 53 1013.0
20260507063332 20 200 12.9 0.0 0.00 0.00 0.00 53 1013.0
20260507061842 20 180 11.3 0.0 0.00 0.00 0.00 49 1013.0
20260507060332 20 180 11.3 0.0 0.00 0.00 0.00 49 1013.0
20260507054832 18 170 9.7 0.0 0.00 0.00 0.00 52 1013.0
20260507053340 18 170 9.7 0.0 0.00 0.00 0.00 52 1013.0
20260507051833 17 170 8.0 0.0 0.00 0.00 0.00 56 1012.0
20260507050332 17 170 8.0 0.0 0.00 0.00 0.00 56 1012.0
20260507044829 16 140 9.7 0.0 0.00 0.00 0.00 63 1012.0
20260507043332 16 140 9.7 0.0 0.00 0.00 0.00 63 1012.0
20260507041832 13 150 4.8 0.0 0.00 0.00 0.00 67 1012.0
20260507040332 13 150 4.8 0.0 0.00 0.00 0.00 67 1012.0
20260507034829 13 210 8.0 0.0 0.00 0.00 0.00 67 1012.0
20260507033331 13 210 8.0 0.0 0.00 0.00 0.00 67 1012.0
20260507031832 12 270 11.3 0.0 0.00 0.00 0.00 72 1012.0
20260507030332 12 270 11.3 0.0 0.00 0.00 0.00 72 1012.0
20260507023332 11 100 3.2 0.0 0.00 0.00 0.00 77 1012.0
20260507021832 11 70 4.8 0.0 0.00 0.00 0.00 77 1011.0
20260507020332 11 70 4.8 0.0 0.00 0.00 0.00 77 1011.0
20260507014832 12 80 4.8 0.0 0.00 0.00 0.00 72 1011.0
20260507013332 12 80 4.8 0.0 0.00 0.00 0.00 72 1011.0